Hourly Weather Roundup
Issued by NWS Central Illinois

Home | Current Version | Previous Version | Text Only | Print | Product List | Glossary On
Versions: 1 2 3 4 5 6 7 8 9 10 11 12 13 14 15 16 17 18 19 20 21 22 23 24 25 26 27 28 29 30 31 32 33 34 35 36 37 38 39 40 41 42 43 44 45 46 47 48 49 50
000
NZUS43 KILX 061410
HWRILX

AREA WEATHER ROUNDUP
NATIONAL WEATHER SERVICE, LINCOLN IL
800 AM CST FRI MAR 06 2015


CITY           SKY/WX    TMP DP  RH WIND       PRES   REMARKS
BLOOMINGTON    SUNNY      7   1  76 S15       30.46S WCI -10
CHAMPAIGN      MOSUNNY    2  -3  80 S9        30.51S WCI -13
DECATUR        SUNNY      9   1  70 S12       30.51S WCI  -6
EFFINGHAM      MOSUNNY    9   1  71 S6        30.58R WCI  -1
FLORA          MOSUNNY    9   4  81 S6        30.59R WCI  -1
GALESBURG      SUNNY     10   4  77 S10       30.36F WCI  -4
JACKSONVILLE   SUNNY     16   6  66 S10G17    30.45F WCI   3
LACON          SUNNY     11   1  63 S8        30.43F WCI  -1
LAWRENCEVILLE  MOSUNNY    6   4  91 CALM      30.59S
LITCHFIELD     SUNNY     10   3  72 S14       30.51S WCI  -6
$$


CITY           SKY/WX    TMP DP  RH WIND       PRES   REMARKS
LINCOLN        SUNNY      9   2  74 S12       30.52S WCI  -5
MACOMB         SUNNY     12   7  79 S16       30.40F WCI  -4
MATTOON        PTSUNNY    7   1  76 S10       30.53R WCI  -8
MT CARMEL AP   SUNNY      9   3  78 CALM      30.58S
OLNEY-NOBLE AP MOSUNNY    9   3  78 CALM      30.59R
PARIS          MOSUNNY    7   4  87 S6        30.55R WCI  -3
PEORIA         SUNNY     11   2  67 S12       30.44F WCI  -3
PONTIAC        MOSUNNY    8   2  76 S14       30.48S WCI  -9
RANTOUL        MOSUNNY   -1  -6  81 S5        30.51S WCI -12
ROBINSON       MOSUNNY    2  -1  85 CALM      30.59R
SPRINGFIELD    SUNNY     14   4  64 S14       30.48F WCI  -1
TAYLORVILLE    SUNNY     10   3  72 S15       30.51S WCI  -6
$$

...REGIONAL REPORTS...


CITY           SKY/WX    TMP DP  RH WIND       PRES   REMARKS
CHICAGO O`HARE PTSUNNY    9   0  67 SW14G21   30.41F WCI  -7
KANKAKEE       SUNNY      6  -1  76 S10       30.49S WCI  -9
MOLINE         MOSUNNY   12   2  64 S10       30.33F WCI  -1
MOUNT VERNON   SUNNY      7   1  78 CALM      30.58S
PITTSFIELD     MOSUNNY   16  10  75 S9        30.43F WCI   5
QUINCY         PTSUNNY   18   7  62 S13       30.37F WCI   5
ROCKFORD       PTSUNNY    4  -3  73 S12       30.39F WCI -12
$$


CITY           SKY/WX    TMP DP  RH WIND       PRES   REMARKS
BURLINGTON     PTSUNNY   14   6  70 S15       30.33F WCI  -1
CEDAR RAPIDS   CLOUDY    14   6  70 S12       30.23F WCI   0
DES MOINES     PTSUNNY   24  13  62 S12       30.20S WCI  13
KIRKSVILLE     MOSUNNY   24  14  65 S15       30.28F WCI  11
OTTUMWA        SUNNY     21  11  65 S16       30.25R WCI   7
ST LOUIS       MOSUNNY   20   9  62 S9        30.50F WCI   9
$$


CITY           SKY/WX    TMP DP  RH WIND       PRES   REMARKS
TERRE HAUTE    SUNNY      4   2  91 CALM      30.56S
EVANSVILLE     SUNNY      7   4  87 CALM      30.60R
INDIANAPOLIS   PTSUNNY    9   2  73 S7        30.52R WCI  -2
LAFAYETTE      MOSUNNY    4   1  88 S5        30.52S WCI  -5
MADISON        PTSUNNY    8  -1  66 S13       30.29F WCI  -8
MILWAUKEE      MOSUNNY    5  -4  66 SW15      30.35F WCI -13
$$




USA.gov is the U.S. government's official web portal to all federal, state and local government web resources and services.